| time (UTC) | temp C | wind direction | speed KPH | gust KPH | rain 1hr cm | rain 24hr cm | rain mn cm | humidity % | barometer mb |
| 20260502130328 | 11 | 360 | 1.6 | 9.7 | 0.00 | 1.30 | 0.00 | 99 | 1021.1 |
| 20260502123346 | 10 | 360 | 1.6 | 3.2 | 0.00 | 1.57 | 0.00 | 98 | 1020.6 |
| 20260502122844 | 10 | 360 | 0.0 | 3.2 | 0.00 | 1.57 | 0.00 | 98 | 1020.4 |
| 20260502122321 | 10 | 360 | 0.0 | 1.6 | 0.00 | 1.57 | 0.00 | 97 | 1020.3 |
| 20260502121819 | 10 | 360 | 0.0 | 3.2 | 0.00 | 1.57 | 0.00 | 97 | 1020.2 |
| 20260502121338 | 10 | 360 | 1.6 | 3.2 | 0.00 | 1.57 | 0.00 | 97 | 1020.2 |
| 20260502120836 | 10 | 360 | 0.0 | 1.6 | 0.00 | 1.57 | 0.00 | 97 | 1020.2 |
| 20260502120313 | 10 | 360 | 0.0 | 1.6 | 0.00 | 1.57 | 0.00 | 97 | 1020.1 |
| 20260502115813 | 10 | 360 | 0.0 | 3.2 | 0.00 | 2.16 | 0.00 | 98 | 1020.1 |
| 20260502115313 | 10 | 360 | 0.0 | 4.8 | 0.00 | 2.16 | 0.00 | 97 | 1020.1 |
| 20260502114848 | 10 | 360 | 1.6 | 4.8 | 0.00 | 2.16 | 0.00 | 98 | 1020.0 |
| 20260502114328 | 10 | 360 | 0.0 | 8.0 | 0.00 | 2.16 | 0.00 | 98 | 1019.8 |
| 20260502113825 | 10 | 360 | 3.2 | 8.0 | 0.00 | 2.16 | 0.00 | 98 | 1019.8 |
| 20260502113325 | 10 | 360 | 1.6 | 6.4 | 0.00 | 2.16 | 0.00 | 98 | 1019.8 |
| 20260502112823 | 10 | 360 | 0.0 | 4.8 | 0.00 | 2.16 | 0.00 | 97 | 1019.7 |
| 20260502112319 | 10 | 360 | 3.2 | 4.8 | 0.00 | 2.16 | 0.00 | 98 | 1019.7 |
| 20260502111842 | 10 | 360 | 1.6 | 6.4 | 0.00 | 2.16 | 0.00 | 97 | 1019.6 |
| 20260502111319 | 10 | 360 | 1.6 | 6.4 | 0.00 | 2.16 | 0.00 | 98 | 1019.5 |
| 20260502110819 | 10 | 360 | 0.0 | 4.8 | 0.00 | 2.16 | 0.00 | 98 | 1019.5 |
| 20260502110318 | 10 | 360 | 1.6 | 6.4 | 0.00 | 2.16 | 0.00 | 98 | 1019.5 |
| 20260502105818 | 10 | 360 | 1.6 | 6.4 | 0.00 | 2.62 | 0.00 | 98 | 1019.4 |
| 20260502105316 | 10 | 360 | 1.6 | 8.0 | 0.00 | 2.62 | 0.00 | 98 | 1019.4 |
| 20260502104836 | 10 | 360 | 1.6 | 4.8 | 0.00 | 2.62 | 0.00 | 98 | 1019.3 |
| 20260502104314 | 10 | 360 | 1.6 | 4.8 | 0.00 | 2.62 | 0.00 | 97 | 1019.2 |
| 20260502103813 | 10 | 360 | 0.0 | 3.2 | 0.00 | 2.62 | 0.00 | 97 | 1019.2 |
| 20260502103314 | 10 | 360 | 0.0 | 3.2 | 0.00 | 2.62 | 0.00 | 97 | 1019.1 |
| 20260502102832 | 10 | 360 | 0.0 | 3.2 | 0.00 | 2.62 | 0.00 | 97 | 1019.0 |
| 20260502102330 | 10 | 360 | 1.6 | 3.2 | 0.00 | 2.62 | 0.00 | 97 | 1018.9 |
| 20260502101830 | 10 | 360 | 0.0 | 3.2 | 0.00 | 2.62 | 0.00 | 97 | 1018.9 |
| 20260502101328 | 10 | 360 | 0.0 | 3.2 | 0.00 | 2.62 | 0.00 | 97 | 1018.9 |
| 20260502100827 | 10 | 360 | 0.0 | 3.2 | 0.00 | 2.62 | 0.00 | 97 | 1018.7 |
| 20260502100324 | 10 | 360 | 0.0 | 4.8 | 0.00 | 2.62 | 0.00 | 97 | 1018.5 |
| 20260502091321 | 11 | 360 | 1.6 | 9.7 | 0.00 | 2.87 | 0.00 | 97 | 1017.8 |
| 20260502090841 | 11 | 360 | 3.2 | 8.0 | 0.00 | 2.87 | 0.00 | 97 | 1017.8 |
| 20260502090340 | 11 | 360 | 1.6 | 9.7 | 0.00 | 2.87 | 0.00 | 97 | 1017.7 |
| 20260502071334 | 11 | 360 | 0.0 | 4.8 | 0.00 | 3.78 | 0.00 | 96 | 1017.5 |
| 20260502070814 | 11 | 360 | 0.0 | 3.2 | 0.00 | 3.78 | 0.00 | 96 | 1017.5 |
| 20260502070313 | 11 | 360 | 0.0 | 3.2 | 0.00 | 3.78 | 0.00 | 96 | 1017.5 |
| 20260502065831 | 11 | 360 | 0.0 | 4.8 | 0.00 | 4.42 | 0.00 | 95 | 1017.5 |
| 20260502065351 | 11 | 360 | 0.0 | 4.8 | 0.00 | 4.42 | 0.00 | 95 | 1017.3 |
| 20260502064830 | 11 | 360 | 1.6 | 9.7 | 0.00 | 4.42 | 0.00 | 95 | 1017.4 |
| 20260502064330 | 11 | 360 | 1.6 | 9.7 | 0.00 | 4.42 | 0.00 | 95 | 1017.4 |
| 20260502063828 | 11 | 360 | 1.6 | 9.7 | 0.00 | 4.42 | 0.00 | 95 | 1017.4 |
| 20260502063326 | 11 | 360 | 3.2 | 9.7 | 0.00 | 4.42 | 0.00 | 95 | 1017.5 |
| 20260502062853 | 11 | 360 | 4.8 | 9.7 | 0.00 | 4.42 | 0.00 | 95 | 1017.6 |
| 20260502062330 | 11 | 360 | 3.2 | 9.7 | 0.00 | 4.42 | 0.00 | 95 | 1017.5 |
| 20260502061829 | 11 | 360 | 3.2 | 12.9 | 0.00 | 4.42 | 0.00 | 95 | 1017.5 |
| 20260502061329 | 11 | 360 | 3.2 | 12.9 | 0.00 | 4.42 | 0.00 | 94 | 1017.5 |
| 20260502060829 | 11 | 360 | 3.2 | 12.9 | 0.00 | 4.42 | 0.00 | 94 | 1017.5 |
| 20260502060348 | 11 | 360 | 3.2 | 8.0 | 0.00 | 4.42 | 0.00 | 94 | 1017.5 |
| 20260502055849 | 11 | 360 | 1.6 | 8.0 | 0.00 | 4.42 | 0.00 | 94 | 1017.6 |
| 20260502055342 | 11 | 360 | 3.2 | 12.9 | 0.00 | 4.42 | 0.00 | 93 | 1017.5 |
| 20260502054838 | 11 | 360 | 3.2 | 12.9 | 0.00 | 4.42 | 0.00 | 93 | 1017.4 |
| 20260502054318 | 11 | 360 | 1.6 | 8.0 | 0.00 | 4.42 | 0.00 | 93 | 1017.4 |
| 20260502053819 | 11 | 360 | 3.2 | 8.0 | 0.00 | 4.42 | 0.00 | 92 | 1017.5 |
| 20260502053319 | 11 | 360 | 1.6 | 9.7 | 0.00 | 4.42 | 0.00 | 92 | 1017.5 |
| 20260502052836 | 11 | 360 | 3.2 | 12.9 | 0.00 | 4.42 | 0.00 | 92 | 1017.5 |
| 20260502052315 | 11 | 360 | 4.8 | 12.9 | 0.00 | 4.42 | 0.00 | 92 | 1017.4 |
| 20260502051833 | 12 | 360 | 3.2 | 9.7 | 0.00 | 4.42 | 0.00 | 92 | 1017.5 |
| 20260502051352 | 12 | 360 | 3.2 | 14.5 | 0.00 | 4.42 | 0.00 | 92 | 1017.6 |
| 20260502050851 | 12 | 360 | 4.8 | 22.5 | 0.00 | 4.42 | 0.00 | 91 | 1017.5 |
| 20260502050338 | 12 | 360 | 6.4 | 20.9 | 0.00 | 4.42 | 0.00 | 91 | 1017.4 |
| 20260502045830 | 12 | 360 | 8.0 | 20.9 | 0.00 | 4.45 | 4.42 | 91 | 1017.5 |
| 20260502045331 | 12 | 360 | 3.2 | 19.3 | 0.00 | 4.45 | 4.42 | 92 | 1017.6 |
| 20260502044831 | 12 | 360 | 4.8 | 19.3 | 0.00 | 4.45 | 4.42 | 92 | 1017.5 |
| 20260502044329 | 12 | 360 | 6.4 | 22.5 | 0.00 | 4.45 | 4.42 | 92 | 1017.4 |
| 20260502043846 | 12 | 360 | 6.4 | 22.5 | 0.00 | 4.45 | 4.42 | 92 | 1017.4 |
| 20260502043345 | 12 | 360 | 8.0 | 16.1 | 0.00 | 4.45 | 4.42 | 93 | 1017.3 |
| 20260502042823 | 12 | 360 | 6.4 | 16.1 | 0.00 | 4.45 | 4.42 | 93 | 1017.2 |
| 20260502042342 | 12 | 360 | 4.8 | 20.9 | 0.00 | 4.45 | 4.42 | 94 | 1017.2 |
| 20260502041818 | 12 | 360 | 6.4 | 24.1 | 0.00 | 4.45 | 4.42 | 94 | 1017.2 |
| 20260502041333 | 12 | 360 | 9.7 | 24.1 | 0.00 | 4.45 | 4.42 | 94 | 1017.2 |
| 20260502040813 | 12 | 360 | 6.4 | 19.3 | 0.00 | 4.45 | 4.42 | 94 | 1017.1 |
| 20260502040352 | 13 | 360 | 6.4 | 22.5 | 0.00 | 4.45 | 4.42 | 95 | 1017.1 |
| 20260502035831 | 13 | 360 | 9.7 | 22.5 | 0.00 | 4.45 | 4.42 | 95 | 1017.0 |
| 20260502035329 | 13 | 360 | 6.4 | 20.9 | 0.00 | 4.45 | 4.42 | 95 | 1017.0 |
| 20260502034828 | 13 | 360 | 6.4 | 17.7 | 0.00 | 4.45 | 4.42 | 95 | 1016.9 |
| 20260502034326 | 13 | 360 | 8.0 | 20.9 | 0.00 | 4.45 | 4.42 | 96 | 1016.9 |
| 20260502033826 | 13 | 360 | 8.0 | 25.7 | 0.00 | 4.45 | 4.42 | 96 | 1016.9 |
| 20260502033325 | 13 | 360 | 6.4 | 24.1 | 0.00 | 4.45 | 4.42 | 96 | 1016.8 |
| 20260502032826 | 13 | 360 | 6.4 | 19.3 | 0.00 | 4.45 | 4.42 | 96 | 1016.7 |
| 20260502032325 | 13 | 360 | 8.0 | 20.9 | 0.00 | 4.45 | 4.42 | 96 | 1016.7 |
| 20260502031825 | 13 | 360 | 6.4 | 20.9 | 0.00 | 4.45 | 4.42 | 96 | 1016.7 |
| 20260502031344 | 13 | 360 | 6.4 | 17.7 | 0.00 | 4.45 | 4.42 | 97 | 1016.7 |
| 20260502030837 | 13 | 360 | 8.0 | 14.5 | 0.00 | 4.45 | 4.42 | 97 | 1016.6 |
| 20260502030316 | 13 | 360 | 6.4 | 20.9 | 0.00 | 4.45 | 4.42 | 96 | 1016.5 |
| 20260502025815 | 13 | 360 | 4.8 | 20.9 | 0.00 | 4.45 | 4.42 | 97 | 1016.5 |
| 20260502025315 | 13 | 360 | 9.7 | 20.9 | 0.00 | 4.45 | 4.42 | 97 | 1016.5 |
| 20260502024833 | 13 | 360 | 6.4 | 19.3 | 0.00 | 4.45 | 4.42 | 98 | 1016.4 |
| 20260502024331 | 13 | 360 | 6.4 | 19.3 | 0.00 | 4.45 | 4.42 | 98 | 1016.3 |
| 20260502023830 | 13 | 360 | 6.4 | 17.7 | 0.00 | 4.45 | 4.42 | 98 | 1016.2 |
| 20260502023330 | 13 | 360 | 4.8 | 17.7 | 0.00 | 4.45 | 4.42 | 98 | 1016.1 |
| 20260502022830 | 13 | 360 | 4.8 | 14.5 | 0.00 | 4.45 | 4.42 | 98 | 1016.0 |
| 20260502022329 | 13 | 360 | 6.4 | 16.1 | 0.00 | 4.45 | 4.42 | 98 | 1015.9 |
| 20260502021827 | 13 | 360 | 6.4 | 16.1 | 0.00 | 4.45 | 4.42 | 98 | 1015.8 |
| 20260502021325 | 13 | 360 | 3.2 | 14.5 | 0.00 | 4.45 | 4.42 | 98 | 1015.8 |
| 20260502020824 | 13 | 360 | 3.2 | 14.5 | 0.00 | 4.45 | 4.42 | 98 | 1015.8 |
| 20260502020325 | 13 | 360 | 6.4 | 14.5 | 0.00 | 4.45 | 4.42 | 98 | 1015.7 |
| 20260502015822 | 13 | 360 | 4.8 | 12.9 | 0.00 | 4.45 | 4.42 | 98 | 1015.6 |
| 20260502015321 | 13 | 360 | 3.2 | 16.1 | 0.00 | 4.45 | 4.42 | 98 | 1015.5 |
| 20260502014819 | 13 | 360 | 3.2 | 16.1 | 0.00 | 4.45 | 4.42 | 98 | 1015.4 |
| 20260502014318 | 13 | 360 | 4.8 | 16.1 | 0.00 | 4.45 | 4.42 | 97 | 1015.2 |
| 20260502013816 | 13 | 360 | 4.8 | 16.1 | 0.00 | 4.45 | 4.42 | 97 | 1015.1 |
| 20260502013315 | 13 | 360 | 4.8 | 14.5 | 0.00 | 4.45 | 4.42 | 97 | 1015.1 |
| 20260502012813 | 13 | 360 | 6.4 | 14.5 | 0.00 | 4.45 | 4.42 | 97 | 1015.1 |
| 20260502012331 | 13 | 360 | 6.4 | 16.1 | 0.00 | 4.45 | 4.42 | 97 | 1015.0 |
| 20260502011830 | 13 | 360 | 6.4 | 17.7 | 0.00 | 4.45 | 4.42 | 97 | 1015.0 |
| 20260502011348 | 13 | 360 | 4.8 | 17.7 | 0.00 | 4.45 | 4.42 | 97 | 1014.9 |
| 20260502010821 | 13 | 360 | 8.0 | 20.9 | 0.00 | 4.45 | 4.42 | 97 | 1014.8 |
| 20260502010320 | 13 | 360 | 8.0 | 20.9 | 0.00 | 4.45 | 4.42 | 97 | 1014.8 |
| 20260502005820 | 13 | 360 | 8.0 | 20.9 | 0.00 | 4.45 | 4.42 | 97 | 1014.6 |
| 20260502005320 | 13 | 360 | 6.4 | 19.3 | 0.00 | 4.45 | 4.42 | 97 | 1014.5 |
| 20260502004819 | 13 | 360 | 6.4 | 27.4 | 0.00 | 4.45 | 4.42 | 97 | 1014.5 |
| 20260502004318 | 13 | 360 | 6.4 | 27.4 | 0.00 | 4.45 | 4.42 | 97 | 1014.4 |
| 20260502003818 | 13 | 360 | 3.2 | 32.2 | 0.00 | 4.45 | 4.42 | 97 | 1014.0 |
| 20260502003317 | 13 | 360 | 11.3 | 32.2 | 0.00 | 4.45 | 4.42 | 97 | 1013.7 |
| 20260502002815 | 13 | 360 | 11.3 | 25.7 | 0.00 | 4.45 | 4.42 | 97 | 1013.6 |
| 20260502002316 | 13 | 360 | 6.4 | 30.6 | 0.00 | 4.45 | 4.42 | 97 | 1013.8 |
| 20260502001816 | 13 | 360 | 12.9 | 30.6 | 0.00 | 4.45 | 4.42 | 97 | 1013.8 |
| 20260502001317 | 13 | 360 | 11.3 | 25.7 | 0.00 | 4.45 | 4.42 | 97 | 1013.9 |
| 20260502000815 | 13 | 360 | 8.0 | 24.1 | 0.00 | 4.45 | 4.42 | 97 | 1013.8 |
| 20260502000314 | 13 | 360 | 9.7 | 27.4 | 0.00 | 4.45 | 4.42 | 97 | 1013.7 |
| 20260501235832 | 13 | 360 | 9.7 | 29.0 | 0.00 | 4.45 | 4.42 | 98 | 1013.7 |
| 20260501235331 | 13 | 360 | 9.7 | 29.0 | 0.00 | 4.45 | 4.42 | 98 | 1013.7 |
| 20260501234830 | 13 | 360 | 8.0 | 27.4 | 0.00 | 4.45 | 4.42 | 98 | 1013.7 |
| 20260501234329 | 13 | 360 | 11.3 | 27.4 | 0.00 | 4.45 | 4.42 | 98 | 1013.7 |
| 20260501233828 | 13 | 360 | 6.4 | 24.1 | 0.00 | 4.45 | 4.42 | 98 | 1013.7 |
| 20260501233326 | 14 | 360 | 12.9 | 29.0 | 0.00 | 4.45 | 4.42 | 98 | 1013.7 |
| 20260501232826 | 14 | 360 | 9.7 | 24.1 | 0.00 | 4.45 | 4.42 | 98 | 1013.6 |
| 20260501232346 | 14 | 360 | 6.4 | 20.9 | 0.00 | 4.45 | 4.42 | 98 | 1013.4 |
| 20260501231824 | 14 | 360 | 6.4 | 22.5 | 0.03 | 4.45 | 4.42 | 98 | 1013.5 |
| 20260501231325 | 14 | 360 | 12.9 | 22.5 | 0.03 | 4.45 | 4.42 | 98 | 1013.5 |
| 20260501230825 | 15 | 360 | 6.4 | 17.7 | 0.03 | 4.45 | 4.42 | 98 | 1013.4 |
| 20260501230324 | 15 | 360 | 6.4 | 24.1 | 0.05 | 4.45 | 4.42 | 98 | 1013.2 |
| 20260501225817 | 14 | 360 | 9.7 | 20.9 | 0.08 | 4.45 | 4.42 | 98 | 1013.0 |
| 20260501225338 | 15 | 360 | 11.3 | 20.9 | 0.08 | 4.45 | 4.42 | 98 | 1012.7 |
| 20260501224818 | 15 | 360 | 8.0 | 20.9 | 0.08 | 4.45 | 4.42 | 98 | 1012.6 |
| 20260501224317 | 15 | 360 | 11.3 | 33.8 | 0.08 | 4.45 | 4.42 | 98 | 1012.8 |
| 20260501223817 | 15 | 360 | 11.3 | 33.8 | 0.10 | 4.45 | 4.42 | 98 | 1012.8 |
| 20260501223315 | 15 | 360 | 9.7 | 25.7 | 0.13 | 4.45 | 4.42 | 98 | 1012.4 |
| 20260501222814 | 15 | 360 | 8.0 | 22.5 | 0.15 | 4.45 | 4.42 | 98 | 1012.6 |
| 20260501222313 | 15 | 360 | 6.4 | 22.5 | 0.20 | 4.45 | 4.42 | 98 | 1012.4 |
| 20260501221813 | 15 | 360 | 8.0 | 24.1 | 0.18 | 4.42 | 4.39 | 98 | 1012.3 |
| 20260501221314 | 15 | 360 | 8.0 | 24.1 | 0.18 | 4.42 | 4.39 | 98 | 1012.4 |
| 20260501220832 | 15 | 360 | 8.0 | 17.7 | 0.18 | 4.42 | 4.39 | 98 | 1012.7 |
| 20260501220331 | 15 | 360 | 4.8 | 25.7 | 0.15 | 4.39 | 4.37 | 98 | 1012.5 |
| 20260501215830 | 15 | 360 | 6.4 | 22.5 | 0.13 | 4.37 | 4.34 | 98 | 1012.4 |
| 20260501215330 | 15 | 360 | 8.0 | 22.5 | 0.13 | 4.37 | 4.34 | 98 | 1012.2 |
| 20260501214849 | 15 | 360 | 4.8 | 20.9 | 0.13 | 4.37 | 4.34 | 98 | 1012.0 |
| 20260501214327 | 15 | 360 | 9.7 | 29.0 | 0.13 | 4.37 | 4.34 | 98 | 1012.1 |
| 20260501213825 | 15 | 360 | 8.0 | 29.0 | 0.10 | 4.34 | 4.32 | 98 | 1012.0 |
| 20260501213325 | 15 | 360 | 8.0 | 22.5 | 0.08 | 4.32 | 4.29 | 98 | 1011.6 |
| 20260501212826 | 15 | 360 | 4.8 | 19.3 | 0.05 | 4.29 | 4.27 | 98 | 1012.1 |
| 20260501212313 | 15 | 360 | 9.7 | 25.7 | 0.00 | 4.24 | 4.22 | 98 | 1011.8 |
| 20260501211829 | 15 | 360 | 11.3 | 25.7 | 0.00 | 4.24 | 4.22 | 97 | 1011.6 |
| 20260501211330 | 15 | 360 | 11.3 | 25.7 | 0.00 | 4.24 | 4.22 | 97 | 1011.6 |
| 20260501210829 | 15 | 360 | 8.0 | 25.7 | 0.00 | 4.24 | 4.22 | 98 | 1011.0 |
| 20260501210329 | 15 | 360 | 8.0 | 25.7 | 0.00 | 4.24 | 4.22 | 98 | 1010.6 |
| 20260501205828 | 15 | 360 | 9.7 | 29.0 | 0.00 | 4.24 | 4.22 | 98 | 1010.3 |
| 20260501205328 | 15 | 360 | 11.3 | 29.0 | 0.00 | 4.24 | 4.22 | 98 | 1010.2 |
| 20260501204827 | 16 | 360 | 9.7 | 19.3 | 0.00 | 4.24 | 4.22 | 98 | 1010.2 |
| 20260501204326 | 16 | 360 | 6.4 | 17.7 | 0.00 | 4.24 | 4.22 | 98 | 1010.0 |
| 20260501203826 | 16 | 360 | 4.8 | 22.5 | 0.00 | 4.24 | 4.22 | 98 | 1009.9 |
| 20260501203345 | 16 | 360 | 8.0 | 19.3 | 0.00 | 4.24 | 4.22 | 98 | 1009.8 |
| 20260501202823 | 16 | 360 | 4.8 | 24.1 | 0.00 | 4.24 | 4.22 | 98 | 1009.8 |
| 20260501202323 | 16 | 360 | 8.0 | 29.0 | 0.00 | 4.24 | 4.22 | 98 | 1009.8 |
| 20260501201842 | 16 | 360 | 12.9 | 24.1 | 0.03 | 4.24 | 4.22 | 98 | 1009.8 |
| 20260501201317 | 16 | 360 | 6.4 | 24.1 | 0.05 | 4.24 | 4.22 | 98 | 1010.1 |
| 20260501200833 | 16 | 360 | 8.0 | 24.1 | 0.10 | 4.24 | 4.22 | 98 | 1010.4 |
| 20260501200351 | 16 | 360 | 9.7 | 22.5 | 0.10 | 4.24 | 4.22 | 99 | 1010.6 |
| 20260501195829 | 16 | 360 | 8.0 | 25.7 | 0.10 | 4.24 | 4.22 | 99 | 1010.8 |
| 20260501195329 | 16 | 360 | 9.7 | 25.7 | 0.10 | 4.24 | 4.22 | 99 | 1011.0 |
| 20260501194827 | 16 | 360 | 6.4 | 20.9 | 0.10 | 4.24 | 4.22 | 99 | 1011.0 |
| 20260501194326 | 16 | 360 | 9.7 | 24.1 | 0.10 | 4.24 | 4.22 | 99 | 1011.7 |
| 20260501193826 | 16 | 360 | 4.8 | 24.1 | 0.10 | 4.24 | 4.22 | 99 | 1011.9 |
| 20260501193326 | 16 | 360 | 3.2 | 14.5 | 0.13 | 4.24 | 4.22 | 99 | 1011.9 |
| 20260501192845 | 16 | 360 | 4.8 | 16.1 | 0.15 | 4.24 | 4.22 | 99 | 1011.9 |
| 20260501192324 | 16 | 360 | 4.8 | 16.1 | 0.23 | 4.24 | 4.22 | 99 | 1011.8 |
| 20260501191824 | 15 | 360 | 6.4 | 16.1 | 0.20 | 4.22 | 4.19 | 98 | 1011.5 |
| 20260501191323 | 15 | 360 | 6.4 | 16.1 | 0.20 | 4.19 | 4.17 | 98 | 1010.4 |
| 20260501190821 | 15 | 360 | 4.8 | 14.5 | 0.15 | 4.14 | 4.11 | 98 | 1010.9 |
| 20260501190320 | 15 | 360 | 4.8 | 19.3 | 0.18 | 4.14 | 4.11 | 98 | 1012.2 |
| 20260501185839 | 15 | 360 | 6.4 | 29.0 | 0.20 | 4.14 | 4.11 | 98 | 1011.5 |
| 20260501185318 | 15 | 360 | 3.2 | 37.0 | 0.23 | 4.14 | 4.11 | 98 | 1011.4 |
| 20260501184838 | 16 | 360 | 11.3 | 37.0 | 0.36 | 4.14 | 4.11 | 98 | 1010.6 |
| 20260501184316 | 16 | 360 | 12.9 | 37.0 | 0.43 | 4.14 | 4.11 | 98 | 1010.2 |
| 20260501183815 | 16 | 360 | 11.3 | 24.1 | 0.43 | 4.14 | 4.11 | 99 | 1010.3 |
| 20260501183315 | 16 | 360 | 9.7 | 27.4 | 0.41 | 4.11 | 4.09 | 98 | 1010.9 |
| 20260501182815 | 16 | 360 | 9.7 | 24.1 | 0.38 | 4.09 | 4.06 | 98 | 1011.2 |
| 20260501182335 | 16 | 360 | 12.9 | 22.5 | 0.30 | 4.01 | 3.99 | 99 | 1011.2 |
| 20260501181813 | 16 | 360 | 8.0 | 24.1 | 0.30 | 4.01 | 3.99 | 99 | 1012.1 |
| 20260501181333 | 16 | 360 | 8.0 | 24.1 | 0.28 | 3.99 | 3.96 | 98 | 1011.6 |
| 20260501180830 | 16 | 360 | 11.3 | 24.1 | 0.28 | 3.99 | 3.96 | 98 | 1011.0 |
| 20260501180312 | 16 | 360 | 8.0 | 17.7 | 0.25 | 3.96 | 3.94 | 98 | 1010.7 |
| 20260501175831 | 16 | 360 | 6.4 | 19.3 | 0.23 | 3.94 | 3.91 | 98 | 1010.5 |
| 20260501175331 | 16 | 360 | 9.7 | 24.1 | 0.20 | 3.91 | 3.89 | 98 | 1010.5 |
| 20260501174830 | 16 | 360 | 11.3 | 24.1 | 0.10 | 3.81 | 3.78 | 98 | 1009.8 |
| 20260501174349 | 16 | 360 | 4.8 | 19.3 | 0.00 | 3.71 | 3.68 | 98 | 1011.5 |
| 20260501173828 | 16 | 360 | 4.8 | 19.3 | 0.00 | 3.71 | 3.68 | 98 | 1011.2 |
| 20260501173329 | 16 | 360 | 6.4 | 17.7 | 0.00 | 3.71 | 3.68 | 98 | 1010.7 |
| 20260501172829 | 16 | 360 | 6.4 | 17.7 | 0.00 | 3.71 | 3.68 | 98 | 1010.8 |
| 20260501172330 | 16 | 360 | 4.8 | 16.1 | 0.00 | 3.71 | 3.68 | 98 | 1010.7 |
| 20260501171830 | 17 | 360 | 8.0 | 17.7 | 0.00 | 3.71 | 3.68 | 98 | 1011.0 |
| 20260501171328 | 17 | 360 | 4.8 | 19.3 | 0.00 | 3.71 | 3.68 | 99 | 1010.9 |
| 20260501170848 | 17 | 360 | 6.4 | 19.3 | 0.00 | 3.71 | 3.68 | 99 | 1010.8 |
| 20260501170325 | 17 | 360 | 4.8 | 20.9 | 0.00 | 3.71 | 3.68 | 99 | 1010.8 |
| 20260501165812 | 17 | 360 | 4.8 | 22.5 | 0.03 | 3.71 | 3.68 | 99 | 1010.9 |
| 20260501165328 | 17 | 360 | 8.0 | 22.5 | 0.03 | 3.71 | 3.68 | 99 | 1010.7 |
| 20260501164825 | 17 | 360 | 6.4 | 14.5 | 0.05 | 3.71 | 3.68 | 99 | 1010.7 |
| 20260501164324 | 17 | 360 | 4.8 | 19.3 | 0.08 | 3.71 | 3.68 | 99 | 1010.6 |
| 20260501163824 | 17 | 360 | 9.7 | 19.3 | 0.13 | 3.71 | 3.68 | 99 | 1010.5 |
| 20260501163323 | 17 | 360 | 4.8 | 19.3 | 0.13 | 3.71 | 3.68 | 99 | 1010.7 |
| 20260501162824 | 17 | 360 | 6.4 | 20.9 | 0.13 | 3.71 | 3.68 | 99 | 1010.4 |
| 20260501162324 | 17 | 360 | 12.9 | 20.9 | 0.13 | 3.71 | 3.68 | 99 | 1009.8 |
| 20260501161824 | 17 | 360 | 3.2 | 19.3 | 0.15 | 3.71 | 3.68 | 99 | 1009.9 |
| 20260501161322 | 17 | 360 | 3.2 | 27.4 | 0.15 | 3.71 | 3.68 | 99 | 1010.1 |
| 20260501160821 | 16 | 360 | 9.7 | 25.7 | 0.15 | 3.71 | 3.68 | 99 | 1010.2 |
| 20260501160321 | 16 | 360 | 4.8 | 17.7 | 0.13 | 3.68 | 3.66 | 99 | 1010.6 |
| 20260501155838 | 16 | 360 | 6.4 | 19.3 | 0.13 | 3.68 | 3.66 | 99 | 1011.5 |
| 20260501155318 | 16 | 360 | 4.8 | 19.3 | 0.13 | 3.68 | 3.66 | 99 | 1012.2 |
| 20260501154818 | 16 | 360 | 8.0 | 16.1 | 0.10 | 3.66 | 3.63 | 99 | 1012.4 |
| 20260501154317 | 16 | 360 | 4.8 | 17.7 | 0.05 | 3.61 | 3.58 | 99 | 1013.0 |
| 20260501153817 | 16 | 360 | 3.2 | 16.1 | 0.03 | 3.58 | 3.56 | 99 | 1012.8 |
| 20260501153317 | 16 | 360 | 3.2 | 19.3 | 0.05 | 3.58 | 3.56 | 99 | 1012.9 |
| 20260501152817 | 16 | 360 | 6.4 | 19.3 | 0.05 | 3.58 | 3.56 | 99 | 1012.5 |
| 20260501152317 | 16 | 360 | 3.2 | 16.1 | 0.03 | 3.56 | 3.53 | 99 | 1012.1 |
| 20260501151818 | 16 | 360 | 6.4 | 16.1 | 0.05 | 3.56 | 3.53 | 99 | 1011.9 |
| 20260501151317 | 16 | 360 | 6.4 | 16.1 | 0.05 | 3.56 | 3.53 | 99 | 1012.2 |
| 20260501150817 | 16 | 360 | 4.8 | 12.9 | 0.05 | 3.56 | 3.53 | 99 | 1012.1 |
| 20260501150316 | 16 | 360 | 4.8 | 17.7 | 0.05 | 3.56 | 3.53 | 99 | 1012.1 |
| 20260501145817 | 16 | 360 | 8.0 | 24.1 | 0.08 | 3.56 | 3.53 | 99 | 1011.7 |
| 20260501145317 | 16 | 360 | 9.7 | 24.1 | 0.10 | 3.56 | 3.53 | 99 | 1011.7 |
| 20260501144817 | 16 | 360 | 6.4 | 19.3 | 0.23 | 3.56 | 3.53 | 99 | 1011.6 |
| 20260501144317 | 16 | 360 | 4.8 | 17.7 | 0.30 | 3.56 | 3.53 | 99 | 1011.6 |
| 20260501143815 | 16 | 360 | 8.0 | 25.7 | 0.41 | 3.56 | 3.53 | 99 | 1011.8 |
| 20260501143315 | 16 | 360 | 9.7 | 25.7 | 0.38 | 3.53 | 3.51 | 99 | 1012.3 |
| 20260501142836 | 16 | 360 | 8.0 | 19.3 | 0.38 | 3.53 | 3.51 | 99 | 1011.7 |